User: anonymous   Login
Location: Allison's Woods
(35.8809°N, 80.8140°W)
Time: 14:10:37
(UTC-05:00)
Language:

Iridium 39 - Orbit

View from above orbital plane
View from above orbital plane
View from above satellite
View from above satellite

Ground track
Ground track

The orbit data is extracted from the following two-line orbital elements,

1 25042U 97069D   17050.59492707  .00000150  00000-0  36361-4 0  9999
2 25042  86.3883  69.3878 0018487 350.6865   9.3991 14.46128799  9723
Epoch (UTC): 19 February 2017 14:16:41
Eccentricity: 0.0018487
inclination: 86.3883°
perigee height: 725 km
apogee height: 751 km
right ascension of ascending node: 69.3878°
argument of perigee: 350.6865°
revolutions per day: 14.46128799
mean anomaly at epoch: 9.3991°
orbit number at epoch: 972

The dashed part of the orbit path shows where the satellite is in the earth's shadow,  

DLR